This demonstration page uses our WeatherBlox Daily Observations layout. Learn more.

Left ArrowRight Arrow

36.19886, -115.1175

Hourly Observations for February 16, 2017

Temp ( °F °C ) Dew Point ( °F °C ) Humidity (%) Winds ( mph kmh ) Pressure ( in mb ) Visibility ( mi km ) Precip ( " mm )
12:53 am 00:53 Clear 48 8.9 31 -0.6 52 52 N 7 11 30.13 1020 10 16 0.00 0.00
1:53 am 01:53 Clear 48 8.9 30 -1.1 50 50 WNW 5 7 30.11 1020 10 16 0.00 0.00
2:53 am 02:53 Clear 47 8.3 30 -1.1 52 52 NNW 3 6 30.09 1019 10 16 0.00 0.00
3:53 am 03:53 Clear 45 7.2 30 -1.1 56 56 NW 6 9 30.08 1019 10 16 0.00 0.00
4:53 am 04:53 Clear 45 7.2 31 -0.6 58 58 Calm 30.06 1018 10 16 0.00 0.00
5:53 am 05:53 Clear 45 7.2 31 -0.6 58 58 NNW 5 7 30.06 1018 10 16 0.00 0.00
6:53 am 06:53 Sunny 46 7.8 32 0 58 58 WNW 5 7 30.06 1018 10 16 0.00 0.00
7:53 am 07:53 Sunny 50 10 33 0.6 52 52 Calm 30.06 1018 10 16 0.00 0.00
8:53 am 08:53 Sunny 53 11.7 30 -1.1 41 41 SSE 3 6 30.04 1017 10 16 0.00 0.00
9:53 am 09:53 Sunny 57 13.9 29 -1.7 34 34 SE 6 9 30.01 1016 10 16 0.00 0.00
10:53 am 10:53 Sunny 60 15.6 27 -2.8 28 28 SE 6 9 29.98 1015 10 16 0.00 0.00
11:53 am 11:53 Sunny 64 17.8 27 -2.8 25 25 SE 8 13 29.94 1014 10 16 0.00 0.00
12:53 pm 12:53 Sunny 66 18.9 27 -2.8 23 23 ESE 8 13 29.91 1013 10 16 0.00 0.00
1:53 pm 13:53 Sunny 68 20 28 -2.2 22 22 E 5 7 29.90 1013 10 16 0.00 0.00
2:53 pm 14:53 Sunny 69 20.6 27 -2.8 21 21 NE 12 19 29.88 1012 10 16 0.00 0.00
3:53 pm 15:53 Sunny 69 20.6 27 -2.8 21 21 ENE 13 20 29.87 1011 10 16 0.00 0.00
4:53 pm 16:53 Sunny 68 20 28 -2.2 22 22 ENE 8 13 29.86 1011 10 16 0.00 0.00
5:53 pm 17:53 Mostly Cloudy 65 18.3 29 -1.7 26 26 E 12 19 29.88 1012 10 16 0.00 0.00
6:53 pm 18:53 Mostly Cloudy 64 17.8 29 -1.7 27 27 ESE 10 17 29.87 1012 10 16 0.00 0.00
7:53 pm 19:53 Cloudy 64 17.8 29 -1.7 27 27 E 5 7 29.88 1012 10 16 0.00 0.00
8:53 pm 20:53 Mostly Clear 63 17.2 30 -1.1 29 29 ESE 9 15 29.86 1011 10 16 0.00 0.00
9:53 pm 21:53 Partly Cloudy 62 16.7 31 -0.6 31 31 NNE 6 9 29.85 1011 10 16 0.00 0.00
10:53 pm 22:53 Clear 60 15.6 31 -0.6 33 33 S 9 15 29.83 1010 10 16 0.00 0.00
11:53 pm 23:53 Partly Cloudy 63 17.2 36 2.2 37 37 SSW 14 22 29.82 1010 10 16 0.00 0.00

Powered by AerisWeather